Time,TemperatureF,DewpointF,PressureIn,WindDirection,WindDirectionDegrees,WindSpeedMPH,WindSpeedGustMPH,Humidity,HourlyPrecipIn,Conditions,Clouds,dailyrainin,SoftwareType,DateUTC
2013-02-10 00:00:00,38.9,36.2,29.62,East,101,9.0,19.0,90,0.00,,,0.02,VWS V14.00,2013-02-10 06:00:00,
2013-02-10 00:05:00,38.9,36.2,29.61,ESE,112,9.0,9.0,90,0.00,,,0.00,VWS V14.00,2013-02-10 06:05:00,
2013-02-10 00:10:00,38.9,36.5,29.61,ESE,121,12.0,18.0,91,0.00,,,0.00,VWS V14.00,2013-02-10 06:10:00,
2013-02-10 00:15:00,38.9,36.5,29.62,SSE,156,11.0,18.0,91,0.00,,,0.00,VWS V14.00,2013-02-10 06:15:00,
2013-02-10 00:20:00,38.9,36.5,29.62,SE,125,6.0,18.0,91,0.00,,,0.00,VWS V14.00,2013-02-10 06:20:00,
2013-02-10 00:25:00,38.8,36.4,29.61,ESE,109,10.0,18.0,91,0.00,,,0.00,VWS V14.00,2013-02-10 06:25:00,
2013-02-10 00:30:00,38.8,36.4,29.61,SE,138,6.0,18.0,91,0.00,,,0.00,VWS V14.00,2013-02-10 06:30:00,
2013-02-10 00:35:00,38.7,36.3,29.61,ESE,121,10.0,10.0,91,0.00,,,0.00,VWS V14.00,2013-02-10 06:35:00,
2013-02-10 00:40:00,38.7,36.3,29.61,SE,141,10.0,16.0,91,0.00,,,0.00,VWS V14.00,2013-02-10 06:40:00,
2013-02-10 00:45:00,38.6,36.2,29.61,South,171,3.0,16.0,91,0.00,,,0.00,VWS V14.00,2013-02-10 06:45:00,
2013-02-10 00:50:00,38.6,36.2,29.60,SSW,196,8.0,16.0,91,0.00,,,0.00,VWS V14.00,2013-02-10 06:50:00,
2013-02-10 00:55:00,38.5,36.1,29.60,SE,137,2.0,18.0,91,0.00,,,0.00,VWS V14.00,2013-02-10 06:55:00,
2013-02-10 00:59:00,38.4,36.0,29.60,ESE,108,11.0,18.0,91,0.00,,,0.00,VWS V14.00,2013-02-10 06:59:00,
2013-02-10 01:04:00,38.4,36.0,29.59,ESE,113,5.0,5.0,91,0.00,,,0.01,VWS V14.00,2013-02-10 07:04:00,
2013-02-10 01:09:00,38.4,36.0,29.59,East,98,10.0,17.0,91,0.00,,,0.01,VWS V14.00,2013-02-10 07:09:00,
2013-02-10 01:14:00,38.3,35.9,29.58,SE,134,6.0,20.0,91,0.00,,,0.01,VWS V14.00,2013-02-10 07:14:00,
2013-02-10 01:19:00,38.3,35.9,29.57,East,82,3.0,20.0,91,0.00,,,0.01,VWS V14.00,2013-02-10 07:19:00,
2013-02-10 01:24:00,38.3,35.9,29.57,East,90,9.0,20.0,91,0.00,,,0.01,VWS V14.00,2013-02-10 07:24:00,
2013-02-10 01:29:00,38.3,36.2,29.56,SSE,157,7.0,20.0,92,0.00,,,0.01,VWS V14.00,2013-02-10 07:29:00,
2013-02-10 01:34:00,38.3,36.2,29.56,SE,143,16.0,20.0,92,0.00,,,0.01,VWS V14.00,2013-02-10 07:34:00,
2013-02-10 01:39:00,38.4,36.3,29.57,ESE,114,4.0,16.0,92,0.00,,,0.01,VWS V14.00,2013-02-10 07:39:00,
2013-02-10 01:44:00,38.4,36.3,29.57,SE,138,11.0,16.0,92,0.00,,,0.01,VWS V14.00,2013-02-10 07:44:00,
2013-02-10 01:49:00,38.5,36.4,29.56,SE,130,6.0,16.0,92,0.00,,,0.01,VWS V14.00,2013-02-10 07:49:00,
2013-02-10 01:54:00,38.5,36.4,29.55,East,95,10.0,17.0,92,0.00,,,0.01,VWS V14.00,2013-02-10 07:54:00,
2013-02-10 01:59:00,38.6,36.5,29.55,SE,127,8.0,17.0,92,0.00,,,0.01,VWS V14.00,2013-02-10 07:59:00,
2013-02-10 02:04:00,38.6,36.5,29.54,SSE,148,3.0,17.0,92,0.00,,,0.01,VWS V14.00,2013-02-10 08:04:00,
2013-02-10 02:09:00,38.7,36.6,29.54,SE,133,4.0,15.0,92,0.00,,,0.01,VWS V14.00,2013-02-10 08:09:00,
2013-02-10 02:14:00,38.7,36.6,29.52,ESE,120,16.0,16.0,92,0.00,,,0.01,VWS V14.00,2013-02-10 08:14:00,
2013-02-10 02:19:00,38.8,36.7,29.52,ESE,105,6.0,16.0,92,0.00,,,0.01,VWS V14.00,2013-02-10 08:19:00,
2013-02-10 02:24:00,38.8,36.7,29.52,ESE,121,13.0,18.0,92,0.00,,,0.01,VWS V14.00,2013-02-10 08:24:00,
2013-02-10 02:29:00,38.9,36.8,29.51,SSE,161,5.0,20.0,92,0.00,,,0.01,VWS V14.00,2013-02-10 08:29:00,
2013-02-10 02:34:00,38.9,36.8,29.50,ENE,78,7.0,21.0,92,0.00,,,0.01,VWS V14.00,2013-02-10 08:34:00,
2013-02-10 02:39:00,38.9,36.8,29.49,South,182,16.0,20.0,92,0.00,,,0.01,VWS V14.00,2013-02-10 08:39:00,
2013-02-10 02:44:00,38.9,36.8,29.48,ENE,77,3.0,24.0,92,0.00,,,0.01,VWS V14.00,2013-02-10 08:44:00,
2013-02-10 02:49:00,38.9,36.8,29.49,ESE,113,12.0,24.0,92,0.00,,,0.01,VWS V14.00,2013-02-10 08:49:00,
2013-02-10 02:54:00,38.9,36.8,29.48,ESE,109,5.0,24.0,92,0.00,,,0.01,VWS V14.00,2013-02-10 08:54:00,
2013-02-10 02:59:00,39.0,36.9,29.47,East,80,16.0,24.0,92,0.00,,,0.01,VWS V14.00,2013-02-10 08:59:00,
2013-02-10 03:04:00,39.0,37.2,29.45,ESE,105,16.0,24.0,93,0.00,,,0.01,VWS V14.00,2013-02-10 09:04:00,
2013-02-10 03:09:00,39.0,37.2,29.44,ESE,106,4.0,18.0,93,0.00,,,0.01,VWS V14.00,2013-02-10 09:09:00,
2013-02-10 03:14:00,39.1,37.2,29.44,ESE,117,16.0,20.0,93,0.00,,,0.01,VWS V14.00,2013-02-10 09:14:00,
2013-02-10 03:19:00,39.2,37.3,29.42,SSE,150,6.0,20.0,93,0.00,,,0.01,VWS V14.00,2013-02-10 09:19:00,
2013-02-10 03:24:00,39.3,37.5,29.42,NE,49,6.0,25.0,93,0.00,,,0.01,VWS V14.00,2013-02-10 09:24:00,
2013-02-10 03:29:00,39.4,37.5,29.43,ENE,60,6.0,25.0,93,0.00,,,0.01,VWS V14.00,2013-02-10 09:29:00,
2013-02-10 03:34:00,39.5,37.7,29.43,SE,141,14.0,25.0,93,0.00,,,0.01,VWS V14.00,2013-02-10 09:34:00,
2013-02-10 03:39:00,39.6,37.8,29.43,SE,141,5.0,12.0,93,0.00,,,0.01,VWS V14.00,2013-02-10 09:39:00,
2013-02-10 03:44:00,39.7,37.8,29.43,ESE,109,8.0,17.0,93,0.00,,,0.01,VWS V14.00,2013-02-10 09:44:00,
2013-02-10 03:49:00,39.8,38.0,29.43,SSE,148,15.0,20.0,93,0.00,,,0.01,VWS V14.00,2013-02-10 09:49:00,
2013-02-10 03:54:00,39.9,38.0,29.43,East,86,2.0,20.0,93,0.00,,,0.01,VWS V14.00,2013-02-10 09:54:00,
2013-02-10 03:59:00,40.0,38.1,29.42,SE,130,10.0,20.0,93,0.00,,,0.01,VWS V14.00,2013-02-10 09:59:00,
2013-02-10 04:04:00,40.1,38.2,29.42,ESE,113,5.0,21.0,93,0.00,,,0.02,VWS V14.00,2013-02-10 10:04:00,
2013-02-10 04:09:00,40.2,38.3,29.41,SE,140,10.0,16.0,93,0.00,,,0.02,VWS V14.00,2013-02-10 10:09:00,
2013-02-10 04:14:00,40.3,38.4,29.40,SSE,150,4.0,16.0,93,0.00,,,0.02,VWS V14.00,2013-02-10 10:14:00,
2013-02-10 04:19:00,40.4,38.5,29.40,SE,138,11.0,17.0,93,0.00,,,0.02,VWS V14.00,2013-02-10 10:19:00,
2013-02-10 04:24:00,40.4,38.5,29.40,SE,145,2.0,17.0,93,0.00,,,0.02,VWS V14.00,2013-02-10 10:24:00,
2013-02-10 04:29:00,40.5,38.6,29.40,ESE,119,1.0,17.0,93,0.00,,,0.03,VWS V14.00,2013-02-10 10:29:00,
2013-02-10 04:34:00,40.6,38.7,29.40,SSE,152,5.0,17.0,93,0.00,,,0.03,VWS V14.00,2013-02-10 10:34:00,
2013-02-10 04:39:00,40.7,38.8,29.39,SE,130,6.0,15.0,93,0.00,,,0.04,VWS V14.00,2013-02-10 10:39:00,
2013-02-10 04:44:00,40.7,38.8,29.38,SE,137,6.0,15.0,93,0.05,,,0.04,VWS V14.00,2013-02-10 10:44:00,
2013-02-10 04:49:00,40.8,38.9,29.37,ESE,122,3.0,15.0,93,0.05,,,0.04,VWS V14.00,2013-02-10 10:49:00,
2013-02-10 04:54:00,40.9,39.0,29.36,ESE,121,4.0,15.0,93,0.04,,,0.04,VWS V14.00,2013-02-10 10:54:00,
2013-02-10 04:59:00,41.0,39.1,29.36,South,171,5.0,15.0,93,0.00,,,0.04,VWS V14.00,2013-02-10 10:59:00,
2013-02-10 05:04:00,41.1,39.2,29.36,SE,134,5.0,15.0,93,0.00,,,0.04,VWS V14.00,2013-02-10 11:04:00,
2013-02-10 05:09:00,41.2,39.3,29.36,SE,143,7.0,9.0,93,0.00,,,0.04,VWS V14.00,2013-02-10 11:09:00,
2013-02-10 05:14:00,41.3,39.4,29.36,SSE,166,0.0,10.0,93,0.00,,,0.04,VWS V14.00,2013-02-10 11:14:00,
2013-02-10 05:19:00,41.3,39.4,29.36,SSE,152,4.0,11.0,93,0.00,,,0.04,VWS V14.00,2013-02-10 11:19:00,
2013-02-10 05:24:00,41.4,39.8,29.35,SSE,159,3.0,14.0,94,0.00,,,0.04,VWS V14.00,2013-02-10 11:24:00,
2013-02-10 05:29:00,41.5,39.9,29.35,SE,132,4.0,14.0,94,0.00,,,0.04,VWS V14.00,2013-02-10 11:29:00,
2013-02-10 05:34:00,41.6,40.0,29.35,SE,130,6.0,14.0,94,0.00,,,0.04,VWS V14.00,2013-02-10 11:34:00,
2013-02-10 05:39:00,41.7,39.8,29.35,ESE,115,4.0,9.0,93,0.00,,,0.04,VWS V14.00,2013-02-10 11:39:00,
2013-02-10 05:44:00,41.8,39.9,29.34,ESE,111,5.0,13.0,93,0.00,,,0.04,VWS V14.00,2013-02-10 11:44:00,
2013-02-10 05:49:00,42.0,40.1,29.34,SSE,150,5.0,14.0,93,0.00,,,0.04,VWS V14.00,2013-02-10 11:49:00,
2013-02-10 05:54:00,42.0,40.4,29.33,East,99,10.0,14.0,94,0.00,,,0.04,VWS V14.00,2013-02-10 11:54:00,
2013-02-10 05:59:00,42.1,40.2,29.32,SE,146,9.0,17.0,93,0.00,,,0.04,VWS V14.00,2013-02-10 11:59:00,
2013-02-10 06:04:00,42.1,40.2,29.31,SE,145,11.0,18.0,93,0.00,,,0.04,VWS V14.00,2013-02-10 12:04:00,
2013-02-10 06:09:00,42.1,40.2,29.31,SSE,156,5.0,15.0,93,0.00,,,0.04,VWS V14.00,2013-02-10 12:09:00,
2013-02-10 06:14:00,42.1,40.2,29.31,SSE,160,7.0,15.0,93,0.00,,,0.04,VWS V14.00,2013-02-10 12:14:00,
2013-02-10 06:19:00,42.1,40.2,29.31,SE,125,10.0,17.0,93,0.00,,,0.04,VWS V14.00,2013-02-10 12:19:00,
2013-02-10 06:24:00,42.2,40.3,29.31,SSE,162,6.0,17.0,93,0.00,,,0.04,VWS V14.00,2013-02-10 12:24:00,
2013-02-10 06:28:00,42.4,40.5,29.31,SE,138,9.0,17.0,93,0.00,,,0.04,VWS V14.00,2013-02-10 12:28:00,
2013-02-10 06:33:00,42.5,40.6,29.31,SSE,163,9.0,17.0,93,0.00,,,0.04,VWS V14.00,2013-02-10 12:33:00,
2013-02-10 06:38:00,42.6,40.4,29.31,SE,140,10.0,19.0,92,0.00,,,0.04,VWS V14.00,2013-02-10 12:38:00,
2013-02-10 06:43:00,42.7,40.5,29.30,SE,138,7.0,19.0,92,0.00,,,0.04,VWS V14.00,2013-02-10 12:43:00,
2013-02-10 06:48:00,42.8,40.6,29.30,SE,126,13.0,19.0,92,0.00,,,0.04,VWS V14.00,2013-02-10 12:48:00,
2013-02-10 06:53:00,42.9,40.7,29.30,South,185,11.0,19.0,92,0.00,,,0.04,VWS V14.00,2013-02-10 12:53:00,
2013-02-10 06:58:00,42.9,40.5,29.30,SE,136,7.0,19.0,91,0.00,,,0.04,VWS V14.00,2013-02-10 12:58:00,
2013-02-10 07:03:00,42.9,40.5,29.30,East,94,3.0,19.0,91,0.00,,,0.04,VWS V14.00,2013-02-10 13:03:00,
2013-02-10 07:08:00,43.0,40.3,29.29,South,171,9.0,18.0,90,0.00,,,0.04,VWS V14.00,2013-02-10 13:08:00,
2013-02-10 07:13:00,43.0,40.3,29.28,SE,142,5.0,22.0,90,0.00,,,0.04,VWS V14.00,2013-02-10 13:13:00,
2013-02-10 07:18:00,43.0,40.0,29.28,SE,134,11.0,22.0,89,0.00,,,0.04,VWS V14.00,2013-02-10 13:18:00,
2013-02-10 07:23:00,43.0,40.0,29.28,ESE,115,12.0,22.0,89,0.00,,,0.04,VWS V14.00,2013-02-10 13:23:00,
2013-02-10 07:28:00,42.9,39.6,29.28,SE,140,10.0,22.0,88,0.00,,,0.04,VWS V14.00,2013-02-10 13:28:00,
2013-02-10 07:33:00,42.8,39.2,29.27,SE,146,13.0,22.0,87,0.00,,,0.04,VWS V14.00,2013-02-10 13:33:00,
2013-02-10 07:38:00,42.8,38.9,29.28,SE,146,8.0,20.0,86,0.00,,,0.04,VWS V14.00,2013-02-10 13:38:00,
2013-02-10 07:43:00,42.7,38.8,29.28,SSE,166,3.0,20.0,86,0.00,,,0.04,VWS V14.00,2013-02-10 13:43:00,
2013-02-10 07:48:00,42.6,38.7,29.28,SSW,192,2.0,20.0,86,0.00,,,0.04,VWS V14.00,2013-02-10 13:48:00,
2013-02-10 07:53:00,42.4,38.2,29.28,South,169,10.0,20.0,85,0.00,,,0.04,VWS V14.00,2013-02-10 13:53:00,
2013-02-10 07:58:00,42.3,37.8,29.28,South,184,6.0,20.0,84,0.00,,,0.04,VWS V14.00,2013-02-10 13:58:00,
2013-02-10 08:03:00,42.1,37.6,29.27,SSE,147,12.0,20.0,84,0.00,,,0.04,VWS V14.00,2013-02-10 14:03:00,
2013-02-10 08:08:00,41.8,36.7,29.28,SE,142,2.0,22.0,82,0.00,,,0.04,VWS V14.00,2013-02-10 14:08:00,
2013-02-10 08:13:00,41.2,35.5,29.27,SE,132,7.0,22.0,80,0.00,,,0.04,VWS V14.00,2013-02-10 14:13:00,
2013-02-10 08:18:00,40.7,35.0,29.28,SSE,149,13.0,22.0,80,0.00,,,0.04,VWS V14.00,2013-02-10 14:18:00,
2013-02-10 08:23:00,40.2,34.5,29.28,SSE,165,6.0,24.0,80,0.00,,,0.04,VWS V14.00,2013-02-10 14:23:00,
2013-02-10 08:28:00,39.7,34.4,29.28,SSE,149,3.0,27.0,81,0.00,,,0.04,VWS V14.00,2013-02-10 14:28:00,
2013-02-10 08:33:00,39.3,34.0,29.28,SSE,160,15.0,27.0,81,0.00,,,0.04,VWS V14.00,2013-02-10 14:33:00,
2013-02-10 08:38:00,38.7,33.7,29.28,SSW,199,10.0,21.0,82,0.00,,,0.04,VWS V14.00,2013-02-10 14:38:00,
2013-02-10 08:43:00,37.9,32.9,29.29,SE,138,4.0,21.0,82,0.00,,,0.04,VWS V14.00,2013-02-10 14:43:00,
2013-02-10 08:48:00,37.3,32.6,29.29,WSW,258,4.0,21.0,83,0.00,,,0.04,VWS V14.00,2013-02-10 14:48:00,
2013-02-10 08:53:00,37.0,32.3,29.28,SSE,149,6.0,21.0,83,0.00,,,0.04,VWS V14.00,2013-02-10 14:53:00,
2013-02-10 08:58:00,36.8,32.1,29.28,South,188,1.0,21.0,83,0.00,,,0.04,VWS V14.00,2013-02-10 14:58:00,
2013-02-10 09:03:00,36.7,32.3,29.27,South,184,7.0,21.0,84,0.00,,,0.04,VWS V14.00,2013-02-10 15:03:00,
2013-02-10 09:08:00,36.6,32.2,29.27,SSE,150,3.0,18.0,84,0.00,,,0.04,VWS V14.00,2013-02-10 15:08:00,
2013-02-10 09:13:00,36.5,32.1,29.28,SSW,198,1.0,20.0,84,0.00,,,0.04,VWS V14.00,2013-02-10 15:13:00,
2013-02-10 09:18:00,36.1,31.5,29.28,SW,217,7.0,23.0,83,0.00,,,0.04,VWS V14.00,2013-02-10 15:18:00,
2013-02-10 09:23:00,35.9,31.2,29.28,SW,225,10.0,23.0,83,0.00,,,0.04,VWS V14.00,2013-02-10 15:23:00,
2013-02-10 09:28:00,35.8,31.1,29.28,SW,232,1.0,23.0,83,0.00,,,0.04,VWS V14.00,2013-02-10 15:28:00,
2013-02-10 09:33:00,35.8,31.1,29.27,SSW,192,2.0,23.0,83,0.00,,,0.04,VWS V14.00,2013-02-10 15:33:00,
2013-02-10 09:38:00,35.6,31.0,29.27,SSW,200,6.0,19.0,83,0.00,,,0.04,VWS V14.00,2013-02-10 15:38:00,
2013-02-10 09:43:00,35.5,30.9,29.27,South,177,2.0,19.0,83,0.00,,,0.04,VWS V14.00,2013-02-10 15:43:00,
2013-02-10 09:48:00,35.3,30.4,29.27,South,188,16.0,22.0,82,0.00,,,0.04,VWS V14.00,2013-02-10 15:48:00,
2013-02-10 09:53:00,35.2,30.6,29.27,SSW,209,14.0,23.0,83,0.00,,,0.04,VWS V14.00,2013-02-10 15:53:00,
2013-02-10 09:58:00,35.1,30.5,29.27,SSW,202,4.0,23.0,83,0.00,,,0.04,VWS V14.00,2013-02-10 15:58:00,
2013-02-10 10:03:00,35.2,30.6,29.27,South,183,2.0,23.0,83,0.00,,,0.04,VWS V14.00,2013-02-10 16:03:00,
2013-02-10 10:08:00,35.2,30.3,29.27,SSW,213,5.0,23.0,82,0.00,,,0.04,VWS V14.00,2013-02-10 16:08:00,
2013-02-10 10:13:00,35.1,30.2,29.26,SW,230,5.0,23.0,82,0.00,,,0.04,VWS V14.00,2013-02-10 16:13:00,
2013-02-10 10:18:00,35.1,30.2,29.26,SSE,165,2.0,23.0,82,0.00,,,0.04,VWS V14.00,2013-02-10 16:18:00,
2013-02-10 10:23:00,35.1,30.2,29.26,WSW,237,14.0,23.0,82,0.00,,,0.04,VWS V14.00,2013-02-10 16:23:00,
2013-02-10 10:28:00,35.0,30.1,29.26,SSE,167,0.0,23.0,82,0.00,,,0.04,VWS V14.00,2013-02-10 16:28:00,
2013-02-10 10:33:00,35.0,30.1,29.26,South,186,15.0,23.0,82,0.00,,,0.04,VWS V14.00,2013-02-10 16:33:00,
2013-02-10 10:38:00,35.0,30.4,29.26,SSW,199,1.0,9.0,83,0.00,,,0.04,VWS V14.00,2013-02-10 16:38:00,
2013-02-10 10:43:00,35.1,30.5,29.26,South,184,0.0,16.0,83,0.00,,,0.04,VWS V14.00,2013-02-10 16:43:00,
2013-02-10 10:48:00,35.1,30.5,29.26,South,173,6.0,16.0,83,0.00,,,0.04,VWS V14.00,2013-02-10 16:48:00,
2013-02-10 10:53:00,35.2,30.6,29.26,South,176,1.0,16.0,83,0.00,,,0.04,VWS V14.00,2013-02-10 16:53:00,
2013-02-10 10:58:00,35.3,30.7,29.26,SSE,166,3.0,16.0,83,0.00,,,0.04,VWS V14.00,2013-02-10 16:58:00,
2013-02-10 11:03:00,35.5,30.9,29.26,South,175,2.0,20.0,83,0.00,,,0.04,VWS V14.00,2013-02-10 17:03:00,
2013-02-10 11:08:00,35.6,31.2,29.26,SSW,204,16.0,22.0,84,0.00,,,0.04,VWS V14.00,2013-02-10 17:08:00,
2013-02-10 11:13:00,35.7,31.4,29.26,SSW,201,1.0,22.0,84,0.00,,,0.04,VWS V14.00,2013-02-10 17:13:00,
2013-02-10 11:18:00,35.9,31.5,29.26,SW,217,2.0,22.0,84,0.00,,,0.04,VWS V14.00,2013-02-10 17:18:00,
2013-02-10 11:23:00,36.1,31.7,29.26,SW,232,5.0,22.0,84,0.00,,,0.04,VWS V14.00,2013-02-10 17:23:00,
2013-02-10 11:28:00,36.2,32.1,29.26,WSW,242,5.0,22.0,85,0.00,,,0.04,VWS V14.00,2013-02-10 17:28:00,
2013-02-10 11:33:00,36.3,32.2,29.25,SW,229,1.0,22.0,85,0.00,,,0.04,VWS V14.00,2013-02-10 17:33:00,
2013-02-10 11:38:00,36.5,32.4,29.26,SW,229,2.0,13.0,85,0.00,,,0.04,VWS V14.00,2013-02-10 17:38:00,
2013-02-10 11:43:00,36.8,33.0,29.25,SW,219,12.0,13.0,86,0.00,,,0.04,VWS V14.00,2013-02-10 17:43:00,
2013-02-10 11:48:00,37.0,33.2,29.25,WSW,238,6.0,13.0,86,0.00,,,0.04,VWS V14.00,2013-02-10 17:48:00,
2013-02-10 11:53:00,37.3,33.5,29.25,West,280,0.0,17.0,86,0.00,,,0.04,VWS V14.00,2013-02-10 17:53:00,
2013-02-10 11:58:00,37.4,33.6,29.25,SW,227,5.0,17.0,86,0.00,,,0.04,VWS V14.00,2013-02-10 17:58:00,
2013-02-10 12:03:00,37.5,33.7,29.26,WNW,299,0.0,17.0,86,0.00,,,0.04,VWS V14.00,2013-02-10 18:03:00,
2013-02-10 12:08:00,37.6,33.8,29.26,SW,217,6.0,8.0,86,0.00,,,0.04,VWS V14.00,2013-02-10 18:08:00,
2013-02-10 12:13:00,37.7,33.9,29.26,SSW,209,0.0,13.0,86,0.00,,,0.04,VWS V14.00,2013-02-10 18:13:00,
2013-02-10 12:18:00,37.8,34.0,29.26,West,259,0.0,13.0,86,0.00,,,0.04,VWS V14.00,2013-02-10 18:18:00,
2013-02-10 12:23:00,38.0,34.5,29.26,WSW,256,0.0,13.0,87,0.00,,,0.04,VWS V14.00,2013-02-10 18:23:00,
2013-02-10 12:28:00,38.2,34.7,29.26,West,278,3.0,13.0,87,0.00,,,0.04,VWS V14.00,2013-02-10 18:28:00,
2013-02-10 12:33:00,38.3,35.1,29.27,NW,305,3.0,15.0,88,0.00,,,0.04,VWS V14.00,2013-02-10 18:33:00,
2013-02-10 12:38:00,38.3,35.1,29.27,West,279,14.0,19.0,88,0.00,,,0.04,VWS V14.00,2013-02-10 18:38:00,
2013-02-10 12:43:00,38.6,35.6,29.27,West,265,9.0,20.0,89,0.00,,,0.04,VWS V14.00,2013-02-10 18:43:00,
2013-02-10 12:48:00,38.4,35.2,29.28,WSW,249,10.0,20.0,88,0.00,,,0.04,VWS V14.00,2013-02-10 18:48:00,
2013-02-10 12:52:00,38.1,34.9,29.28,West,277,11.0,22.0,88,0.00,,,0.04,VWS V14.00,2013-02-10 18:52:00,
2013-02-10 12:57:00,37.9,34.7,29.29,West,276,14.0,22.0,88,0.00,,,0.04,VWS V14.00,2013-02-10 18:57:00,
2013-02-10 13:02:00,37.7,34.2,29.30,WNW,292,19.0,27.0,87,0.00,,,0.04,VWS V14.00,2013-02-10 19:02:00,
2013-02-10 13:07:00,37.3,33.8,29.30,WNW,301,12.0,25.0,87,0.00,,,0.04,VWS V14.00,2013-02-10 19:07:00,
2013-02-10 13:12:00,37.3,34.1,29.30,West,272,6.0,25.0,88,0.00,,,0.04,VWS V14.00,2013-02-10 19:12:00,
2013-02-10 13:17:00,37.7,34.5,29.31,West,278,9.0,26.0,88,0.00,,,0.04,VWS V14.00,2013-02-10 19:17:00,
2013-02-10 13:22:00,37.7,34.2,29.31,WNW,284,17.0,26.0,87,0.00,,,0.04,VWS V14.00,2013-02-10 19:22:00,
2013-02-10 13:27:00,37.5,33.7,29.32,WNW,294,15.0,28.0,86,0.00,,,0.04,VWS V14.00,2013-02-10 19:27:00,
2013-02-10 13:32:00,37.4,33.6,29.33,NW,304,18.0,28.0,86,0.00,,,0.04,VWS V14.00,2013-02-10 19:32:00,
2013-02-10 13:37:00,37.2,32.8,29.33,WNW,290,16.0,26.0,84,0.00,,,0.04,VWS V14.00,2013-02-10 19:37:00,
2013-02-10 13:42:00,36.8,32.4,29.34,West,275,13.0,26.0,84,0.00,,,0.04,VWS V14.00,2013-02-10 19:42:00,
2013-02-10 13:47:00,36.5,32.1,29.34,West,272,24.0,29.0,84,0.00,,,0.04,VWS V14.00,2013-02-10 19:47:00,
2013-02-10 13:52:00,36.2,31.8,29.34,WNW,293,23.0,29.0,84,0.00,,,0.04,VWS V14.00,2013-02-10 19:52:00,
2013-02-10 13:57:00,35.9,31.2,29.35,West,272,14.0,32.0,83,0.00,,,0.04,VWS V14.00,2013-02-10 19:57:00,
2013-02-10 14:02:00,35.8,31.5,29.36,WNW,291,23.0,32.0,84,0.00,,,0.04,VWS V14.00,2013-02-10 20:02:00,
2013-02-10 14:07:00,36.0,31.6,29.36,West,260,17.0,20.0,84,0.00,,,0.04,VWS V14.00,2013-02-10 20:07:00,
2013-02-10 14:12:00,35.8,31.1,29.36,West,268,19.0,26.0,83,0.00,,,0.04,VWS V14.00,2013-02-10 20:12:00,
2013-02-10 14:17:00,35.5,30.6,29.37,NW,322,21.0,26.0,82,0.00,,,0.04,VWS V14.00,2013-02-10 20:17:00,
2013-02-10 14:22:00,35.6,31.0,29.37,NW,305,18.0,32.0,83,0.00,,,0.04,VWS V14.00,2013-02-10 20:22:00,
2013-02-10 14:27:00,35.5,30.6,29.38,NW,318,13.0,32.0,82,0.00,,,0.04,VWS V14.00,2013-02-10 20:27:00,
2013-02-10 14:32:00,35.3,30.1,29.38,West,260,12.0,32.0,81,0.00,,,0.04,VWS V14.00,2013-02-10 20:32:00,
2013-02-10 14:37:00,35.3,30.1,29.38,WNW,286,13.0,30.0,81,0.00,,,0.04,VWS V14.00,2013-02-10 20:37:00,
2013-02-10 14:42:00,35.2,29.7,29.40,WNW,298,11.0,30.0,80,0.00,,,0.04,VWS V14.00,2013-02-10 20:42:00,
2013-02-10 14:47:00,34.9,29.1,29.40,West,277,12.0,30.0,79,0.00,,,0.04,VWS V14.00,2013-02-10 20:47:00,
2013-02-10 14:52:00,34.4,28.6,29.41,NW,317,18.0,30.0,79,0.00,,,0.04,VWS V14.00,2013-02-10 20:52:00,
2013-02-10 14:57:00,34.4,28.6,29.41,West,259,13.0,30.0,79,0.00,,,0.04,VWS V14.00,2013-02-10 20:57:00,
2013-02-10 15:02:00,34.4,28.3,29.42,West,261,17.0,30.0,78,0.00,,,0.04,VWS V14.00,2013-02-10 21:02:00,
2013-02-10 15:07:00,34.3,28.2,29.42,West,274,16.0,22.0,78,0.00,,,0.04,VWS V14.00,2013-02-10 21:07:00,
2013-02-10 15:12:00,34.4,28.6,29.43,West,270,22.0,28.0,79,0.00,,,0.04,VWS V14.00,2013-02-10 21:12:00,
2013-02-10 15:17:00,34.3,28.2,29.44,WNW,295,21.0,29.0,78,0.00,,,0.04,VWS V14.00,2013-02-10 21:17:00,
2013-02-10 15:22:00,34.1,27.7,29.44,WNW,283,18.0,31.0,77,0.00,,,0.05,VWS V14.00,2013-02-10 21:22:00,
2013-02-10 15:27:00,34.0,27.6,29.45,SW,223,7.0,31.0,77,0.00,,,0.05,VWS V14.00,2013-02-10 21:27:00,
2013-02-10 15:32:00,33.9,26.8,29.46,West,271,15.0,31.0,75,0.00,,,0.05,VWS V14.00,2013-02-10 21:32:00,
2013-02-10 15:37:00,33.7,26.6,29.47,WNW,302,24.0,31.0,75,0.00,,,0.05,VWS V14.00,2013-02-10 21:37:00,
2013-02-10 15:42:00,33.8,27.4,29.48,NNW,334,31.0,31.0,77,0.00,,,0.05,VWS V14.00,2013-02-10 21:42:00,
2013-02-10 15:47:00,33.7,26.6,29.48,West,267,15.0,31.0,75,0.00,,,0.05,VWS V14.00,2013-02-10 21:47:00,
2013-02-10 15:52:00,33.6,26.5,29.49,WNW,291,13.0,31.0,75,0.00,,,0.05,VWS V14.00,2013-02-10 21:52:00,
2013-02-10 15:57:00,33.5,27.1,29.50,WSW,254,16.0,31.0,77,0.00,,,0.05,VWS V14.00,2013-02-10 21:57:00,
2013-02-10 16:02:00,33.3,26.2,29.50,West,275,10.0,31.0,75,0.00,,,0.05,VWS V14.00,2013-02-10 22:02:00,
2013-02-10 16:07:00,33.0,26.0,29.50,West,276,9.0,27.0,75,0.00,,,0.05,VWS V14.00,2013-02-10 22:07:00,
2013-02-10 16:12:00,32.9,25.9,29.51,WNW,302,17.0,30.0,75,0.00,,,0.05,VWS V14.00,2013-02-10 22:12:00,
2013-02-10 16:17:00,33.0,26.0,29.52,West,272,17.0,30.0,75,0.00,,,0.05,VWS V14.00,2013-02-10 22:17:00,
2013-02-10 16:22:00,32.9,25.9,29.52,WNW,284,13.0,30.0,75,0.00,,,0.05,VWS V14.00,2013-02-10 22:22:00,
2013-02-10 16:27:00,32.9,25.9,29.53,WNW,296,16.0,30.0,75,0.00,,,0.05,VWS V14.00,2013-02-10 22:27:00,
2013-02-10 16:32:00,32.9,25.9,29.54,West,272,7.0,30.0,75,0.00,,,0.05,VWS V14.00,2013-02-10 22:32:00,
2013-02-10 16:37:00,32.7,25.0,29.54,NW,307,11.0,27.0,73,0.00,,,0.05,VWS V14.00,2013-02-10 22:37:00,
2013-02-10 16:42:00,32.6,24.9,29.54,NW,310,22.0,30.0,73,0.00,,,0.05,VWS V14.00,2013-02-10 22:42:00,
2013-02-10 16:47:00,32.6,25.2,29.55,NW,322,13.0,30.0,74,0.00,,,0.05,VWS V14.00,2013-02-10 22:47:00,
2013-02-10 16:52:00,32.5,24.8,29.56,West,281,15.0,30.0,73,0.00,,,0.05,VWS V14.00,2013-02-10 22:52:00,
2013-02-10 16:57:00,32.5,25.5,29.56,West,273,18.0,30.0,75,0.00,,,0.05,VWS V14.00,2013-02-10 22:57:00,
2013-02-10 17:02:00,32.4,24.4,29.57,WNW,283,16.0,30.0,72,0.00,,,0.05,VWS V14.00,2013-02-10 23:02:00,
2013-02-10 17:07:00,32.3,24.3,29.57,West,275,10.0,25.0,72,0.00,,,0.05,VWS V14.00,2013-02-10 23:07:00,
2013-02-10 17:12:00,32.4,25.0,29.58,WNW,299,18.0,32.0,74,0.00,,,0.05,VWS V14.00,2013-02-10 23:12:00,
2013-02-10 17:17:00,32.4,24.1,29.59,WNW,296,12.0,32.0,71,0.00,,,0.05,VWS V14.00,2013-02-10 23:17:00,
2013-02-10 17:22:00,32.3,24.0,29.59,WNW,294,17.0,32.0,71,0.00,,,0.05,VWS V14.00,2013-02-10 23:22:00,
2013-02-10 17:27:00,32.3,24.6,29.59,NW,316,10.0,32.0,73,0.00,,,0.05,VWS V14.00,2013-02-10 23:27:00,
2013-02-10 17:32:00,32.4,24.4,29.60,WNW,288,15.0,32.0,72,0.00,,,0.05,VWS V14.00,2013-02-10 23:32:00,
2013-02-10 17:37:00,32.3,24.0,29.60,NW,304,13.0,28.0,71,0.00,,,0.05,VWS V14.00,2013-02-10 23:37:00,
2013-02-10 17:42:00,32.2,23.9,29.61,West,276,12.0,28.0,71,0.00,,,0.05,VWS V14.00,2013-02-10 23:42:00,
2013-02-10 17:47:00,32.3,24.6,29.61,WNW,290,25.0,33.0,73,0.00,,,0.05,VWS V14.00,2013-02-10 23:47:00,
2013-02-10 17:52:00,32.2,23.9,29.62,WNW,283,18.0,33.0,71,0.00,,,0.05,VWS V14.00,2013-02-10 23:52:00,
2013-02-10 17:57:00,32.1,23.8,29.62,NW,311,13.0,33.0,71,0.00,,,0.05,VWS V14.00,2013-02-10 23:57:00,
2013-02-10 18:02:00,32.3,24.3,29.63,West,265,10.0,33.0,72,0.00,,,0.05,VWS V14.00,2013-02-11 00:02:00,
2013-02-10 18:07:00,32.2,23.9,29.64,WSW,237,14.0,23.0,71,0.00,,,0.05,VWS V14.00,2013-02-11 00:07:00,
2013-02-10 18:12:00,31.9,22.9,29.64,WNW,296,25.0,35.0,69,0.00,,,0.05,VWS V14.00,2013-02-11 00:12:00,
2013-02-10 18:17:00,31.8,23.5,29.65,NW,324,11.0,35.0,71,0.00,,,0.05,VWS V14.00,2013-02-11 00:17:00,
2013-02-10 18:22:00,31.8,23.1,29.66,West,269,22.0,35.0,70,0.00,,,0.05,VWS V14.00,2013-02-11 00:22:00,
2013-02-10 18:27:00,31.5,22.9,29.66,NW,306,10.0,35.0,70,0.00,,,0.05,VWS V14.00,2013-02-11 00:27:00,
2013-02-10 18:32:00,31.6,23.6,29.67,North,355,19.0,35.0,72,0.00,,,0.05,VWS V14.00,2013-02-11 00:32:00,
2013-02-10 18:37:00,31.8,23.8,29.67,West,278,6.0,24.0,72,0.00,,,0.05,VWS V14.00,2013-02-11 00:37:00,
2013-02-10 18:42:00,31.7,23.4,29.68,NW,317,13.0,24.0,71,0.00,,,0.05,VWS V14.00,2013-02-11 00:42:00,
2013-02-10 18:47:00,31.9,24.2,29.67,WNW,303,11.0,30.0,73,0.00,,,0.05,VWS V14.00,2013-02-11 00:47:00,
2013-02-10 18:52:00,31.7,23.0,29.68,West,265,21.0,30.0,70,0.00,,,0.05,VWS V14.00,2013-02-11 00:52:00,
2013-02-10 18:56:00,31.5,22.9,29.68,WNW,295,17.0,30.0,70,0.00,,,0.05,VWS V14.00,2013-02-11 00:56:00,
2013-02-10 19:01:00,31.5,23.5,29.68,WNW,284,19.0,30.0,72,0.00,,,0.05,VWS V14.00,2013-02-11 01:01:00,
2013-02-10 19:06:00,31.7,23.7,29.69,West,263,12.0,21.0,72,0.00,,,0.05,VWS V14.00,2013-02-11 01:06:00,
2013-02-10 19:11:00,31.5,23.5,29.68,WNW,293,18.0,21.0,72,0.00,,,0.05,VWS V14.00,2013-02-11 01:11:00,
2013-02-10 19:16:00,31.5,23.9,29.69,WNW,295,6.0,24.0,73,0.00,,,0.05,VWS V14.00,2013-02-11 01:16:00,
2013-02-10 19:21:00,31.4,23.8,29.69,NNW,327,10.0,24.0,73,0.00,,,0.05,VWS V14.00,2013-02-11 01:21:00,
2013-02-10 19:26:00,31.7,25.0,29.69,NW,306,10.0,24.0,76,0.00,,,0.05,VWS V14.00,2013-02-11 01:26:00,
2013-02-10 19:31:00,31.7,24.7,29.69,West,270,10.0,24.0,75,0.00,,,0.05,VWS V14.00,2013-02-11 01:31:00,
2013-02-10 19:36:00,31.5,24.2,29.69,NNW,327,12.0,23.0,74,0.00,,,0.05,VWS V14.00,2013-02-11 01:36:00,
2013-02-10 19:41:00,31.5,23.9,29.69,WNW,284,15.0,28.0,73,0.00,,,0.05,VWS V14.00,2013-02-11 01:41:00,
2013-02-10 19:46:00,31.8,24.8,29.70,WNW,292,11.0,28.0,75,0.00,,,0.05,VWS V14.00,2013-02-11 01:46:00,
2013-02-10 19:51:00,31.7,24.0,29.70,West,269,10.0,28.0,73,0.00,,,0.05,VWS V14.00,2013-02-11 01:51:00,
2013-02-10 19:56:00,31.5,24.2,29.71,NW,318,13.0,28.0,74,0.00,,,0.05,VWS V14.00,2013-02-11 01:56:00,
2013-02-10 20:01:00,31.6,24.3,29.72,West,277,15.0,33.0,74,0.00,,,0.05,VWS V14.00,2013-02-11 02:01:00,
2013-02-10 20:06:00,31.9,23.9,29.72,NNW,335,9.0,32.0,72,0.00,,,0.05,VWS V14.00,2013-02-11 02:06:00,
2013-02-10 20:11:00,31.9,23.6,29.72,WNW,298,13.0,32.0,71,0.00,,,0.05,VWS V14.00,2013-02-11 02:11:00,
2013-02-10 20:16:00,32.1,23.8,29.73,NNW,336,19.0,32.0,71,0.00,,,0.05,VWS V14.00,2013-02-11 02:16:00,
2013-02-10 20:21:00,32.2,24.2,29.73,WNW,286,20.0,32.0,72,0.00,,,0.05,VWS V14.00,2013-02-11 02:21:00,
2013-02-10 20:26:00,32.5,24.8,29.74,NW,315,15.0,32.0,73,0.00,,,0.05,VWS V14.00,2013-02-11 02:26:00,
2013-02-10 20:31:00,32.4,24.4,29.74,NW,306,15.0,32.0,72,0.00,,,0.05,VWS V14.00,2013-02-11 02:31:00,
2013-02-10 20:36:00,32.4,24.7,29.74,North,5,3.0,26.0,73,0.00,,,0.05,VWS V14.00,2013-02-11 02:36:00,
2013-02-10 20:41:00,32.3,25.0,29.75,NW,314,10.0,29.0,74,0.00,,,0.05,VWS V14.00,2013-02-11 02:41:00,
2013-02-10 20:46:00,32.4,25.7,29.75,West,263,18.0,29.0,76,0.00,,,0.05,VWS V14.00,2013-02-11 02:46:00,
2013-02-10 20:51:00,32.3,25.3,29.76,WNW,287,11.0,29.0,75,0.00,,,0.05,VWS V14.00,2013-02-11 02:51:00,
2013-02-10 20:56:00,32.1,25.4,29.76,WNW,294,16.0,29.0,76,0.00,,,0.05,VWS V14.00,2013-02-11 02:56:00,
2013-02-10 21:01:00,32.1,26.0,29.76,WNW,292,13.0,29.0,78,0.00,,,0.05,VWS V14.00,2013-02-11 03:01:00,
2013-02-10 21:06:00,32.1,25.7,29.76,WNW,288,9.0,19.0,77,0.00,,,0.05,VWS V14.00,2013-02-11 03:06:00,
2013-02-10 21:11:00,31.9,25.5,29.77,West,268,7.0,19.0,77,0.00,,,0.05,VWS V14.00,2013-02-11 03:11:00,
2013-02-10 21:16:00,31.7,25.6,29.78,West,263,5.0,19.0,78,0.00,,,0.05,VWS V14.00,2013-02-11 03:16:00,
2013-02-10 21:21:00,32.1,26.9,29.78,WSW,253,10.0,19.0,81,0.00,,,0.05,VWS V14.00,2013-02-11 03:21:00,
2013-02-10 21:26:00,32.1,26.6,29.78,WNW,297,10.0,19.0,80,0.00,,,0.05,VWS V14.00,2013-02-11 03:26:00,
2013-02-10 21:31:00,32.0,26.2,29.78,WNW,288,5.0,21.0,79,0.00,,,0.05,VWS V14.00,2013-02-11 03:31:00,
2013-02-10 21:36:00,32.3,26.5,29.79,WNW,288,8.0,18.0,79,0.00,,,0.05,VWS V14.00,2013-02-11 03:36:00,
2013-02-10 21:41:00,32.8,27.3,29.79,West,275,28.0,28.0,80,0.00,,,0.05,VWS V14.00,2013-02-11 03:41:00,
2013-02-10 21:46:00,33.4,26.7,29.80,West,280,19.0,30.0,76,0.00,,,0.05,VWS V14.00,2013-02-11 03:46:00,
2013-02-10 21:51:00,33.6,26.2,29.80,WNW,302,14.0,30.0,74,0.00,,,0.05,VWS V14.00,2013-02-11 03:51:00,
2013-02-10 21:56:00,33.7,25.6,29.81,WNW,294,10.0,30.0,72,0.00,,,0.05,VWS V14.00,2013-02-11 03:56:00,
2013-02-10 22:01:00,33.8,25.4,29.81,WNW,300,27.0,30.0,71,0.00,,,0.05,VWS V14.00,2013-02-11 04:01:00,
2013-02-10 22:06:00,34.1,26.0,29.82,WNW,303,15.0,19.0,72,0.00,,,0.05,VWS V14.00,2013-02-11 04:06:00,
2013-02-10 22:11:00,33.9,25.5,29.82,West,272,16.0,25.0,71,0.00,,,0.05,VWS V14.00,2013-02-11 04:11:00,
2013-02-10 22:16:00,33.7,25.3,29.83,West,279,12.0,25.0,71,0.00,,,0.05,VWS V14.00,2013-02-11 04:16:00,
2013-02-10 22:21:00,33.8,25.7,29.83,West,279,16.0,29.0,72,0.00,,,0.05,VWS V14.00,2013-02-11 04:21:00,
2013-02-10 22:26:00,33.7,25.0,29.84,NW,317,12.0,29.0,70,0.00,,,0.05,VWS V14.00,2013-02-11 04:26:00,
2013-02-10 22:31:00,33.5,24.8,29.84,NW,306,12.0,29.0,70,0.00,,,0.05,VWS V14.00,2013-02-11 04:31:00,
2013-02-10 22:36:00,33.3,24.6,29.85,WNW,296,16.0,27.0,70,0.00,,,0.05,VWS V14.00,2013-02-11 04:36:00,
2013-02-10 22:41:00,33.5,25.1,29.85,WNW,303,25.0,33.0,71,0.00,,,0.05,VWS V14.00,2013-02-11 04:41:00,
2013-02-10 22:46:00,33.4,24.3,29.86,NW,316,17.0,33.0,69,0.00,,,0.05,VWS V14.00,2013-02-11 04:46:00,
2013-02-10 22:51:00,33.2,24.1,29.85,WNW,295,25.0,35.0,69,0.00,,,0.05,VWS V14.00,2013-02-11 04:51:00,
2013-02-10 22:56:00,33.2,24.5,29.86,WNW,298,18.0,36.0,70,0.00,,,0.05,VWS V14.00,2013-02-11 04:56:00,
2013-02-10 23:00:00,33.3,24.2,29.86,WNW,288,17.0,36.0,69,0.00,,,0.05,VWS V14.00,2013-02-11 05:00:00,
2013-02-10 23:05:00,33.1,24.4,29.86,WNW,303,17.0,17.0,70,0.00,,,0.05,VWS V14.00,2013-02-11 05:05:00,
2013-02-10 23:10:00,32.9,24.2,29.86,WNW,287,14.0,27.0,70,0.00,,,0.05,VWS V14.00,2013-02-11 05:10:00,
2013-02-10 23:15:00,33.0,25.0,29.87,West,269,21.0,28.0,72,0.00,,,0.05,VWS V14.00,2013-02-11 05:15:00,
2013-02-10 23:20:00,33.1,24.4,29.87,West,277,27.0,28.0,70,0.00,,,0.05,VWS V14.00,2013-02-11 05:20:00,
2013-02-10 23:25:00,32.9,24.2,29.87,WNW,286,13.0,33.0,70,0.00,,,0.05,VWS V14.00,2013-02-11 05:25:00,
2013-02-10 23:30:00,32.8,24.5,29.88,WNW,301,18.0,33.0,71,0.00,,,0.05,VWS V14.00,2013-02-11 05:30:00,
2013-02-10 23:35:00,33.0,26.0,29.88,WNW,285,11.0,13.0,75,0.00,,,0.05,VWS V14.00,2013-02-11 05:35:00,
2013-02-10 23:40:00,32.8,24.8,29.89,NW,315,3.0,27.0,72,0.00,,,0.05,VWS V14.00,2013-02-11 05:40:00,
2013-02-10 23:45:00,32.7,24.7,29.89,West,265,19.0,28.0,72,0.00,,,0.05,VWS V14.00,2013-02-11 05:45:00,
2013-02-10 23:50:00,32.6,24.6,29.89,NW,306,21.0,28.0,72,0.00,,,0.05,VWS V14.00,2013-02-11 05:50:00,
2013-02-10 23:55:00,32.9,25.5,29.89,NW,319,14.0,30.0,74,0.00,,,0.05,VWS V14.00,2013-02-11 05:55:00,